Regional Weather Roundup
Issued by NWS

Home | Current Version | Previous Version | Graphics & Text | Print | Product List | Glossary On
Versions: 1 2 3 4 5 6 7 8 9 10 11 12 13 14 15 16 17 18 19 20 21 22 23 24 25 26 27 28 29 30 31 32 33 34 35 36 37 38 39 40 41 42 43 44 45 46 47 48 49 50
000
ASUS43 KFSD 220610
RWRSD

WEATHER ROUNDUP FOR SOUTH DAKOTA
NATIONAL WEATHER SERVICE SIOUX FALLS SD
100 AM CDT SUN APR 22 2018

NOTE: "FAIR" INDICATES FEW OR NO CLOUDS BELOW 12,000 FEET WITH NO
SIGNIFICANT WEATHER AND/OR OBSTRUCTIONS TO VISIBILITY.


SDZ001>005-009-010-012>017-220700-
NORTHWEST AND NORTH CENTRAL SOUTH DAKOTA

CITY           SKY/WX    TMP DP  RH WIND       PRES   REMARKS
BUFFALO          N/A     41  36  82 S16       30.00F
FAITH            N/A     38  37  97 S17       30.14S
MOBRIDGE       PTCLDY    38  34  85 VRB3      30.19S
$$

SDZ012>016-024>037-041>051-057-063-072>074-220700-
SOUTHWEST AND SOUTH CENTRAL SOUTH DAKOTA

CITY           SKY/WX    TMP DP  RH WIND       PRES   REMARKS
RAPID CTY ARPT CLEAR     38  34  85 SE12      30.13F
PIERRE         CLEAR     34  33  96 SE7       30.22F WCI  28
CUSTER         CLOUDY    34  32  92 SW6       30.14R WCI  29
ELLSWORTH AFB  CLEAR    N/A N/A N/A S15       30.11F
PHILIP         CLEAR     38  35  89 SE6       30.20S
PINE RIDGE     CLEAR     40  36  86 S13       30.17F
SPEARFISH      FAIR      41  32  70 S5        30.09S
WINNER         MOCLDY    39  33  79 S8        30.25S
$$

SDZ004>011-016>023-039-040-220700-
NORTHEAST SOUTH DAKOTA

CITY           SKY/WX    TMP DP  RH WIND       PRES   REMARKS
ABERDEEN       CLEAR     32  30  92 SE8       30.28S WCI  25
WATERTOWN      CLEAR     37  29  72 S5        30.29S
BROOKINGS      CLEAR     36  30  79 SE10      30.29F
SISSETON         N/A     36  32  85 S6        30.29R
$$

SDZ017-020-022-023-036>040-048>070-220700-
SOUTHEAST SOUTH DAKOTA

CITY           SKY/WX    TMP DP  RH WIND       PRES   REMARKS
SIOUX FALLS    CLOUDY    40  33  76 NE7       30.29S
HURON            N/A     38  32  79 SE8       30.28S
CHAMBERLAIN    MOCLDY    38  38 100 CALM      30.26S
MITCHELL       CLOUDY    39  36  89 E3        30.28F
YANKTON        CLOUDY    45  38  76 E7        30.29R
$$

ABBREVIATIONS USED IN REMARKS
   TC - TEMPERATURE IN CELSIUS
  WCI - WIND CHILL INDEX
   HX - HEAT INDEX
  VSB - VISIBILITY





USA.gov is the U.S. government's official web portal to all federal, state and local government web resources and services.